Notices

What's New in latest Release from April 7th, 2021:

- Updated Glossary, including Speed of Maximum Gust, and Total Hourly Precipitation

- Updated national and regional climate services offices contacts and prices information

- Addition of station inventory lists for 1981-2010, 1971-2000, and 1961-1990 Normals.

If you haven't already, please take our survey and provide feedback about our website: https://eccc.sondage-survey.ca/f/LanguageSelection.aspx?s=442ca660-fcf1-47c0-95a9-59707d6fd709

Hourly Data Report for March 21, 2003

TORONTO CITY
ONTARIO

43°40'00.000" N
79°24'00.000" W
112.50 m
6158355
71508
XTO

Download Data

Hourly Data (March 2003)
Hourly Data Report for March 21, 2003
TIME
LST
Temp Definition
°C
Dew Point Definition
°C
Rel Hum Definition
%
Precip. Amount Definition
mm

Wind Dir Definition
10's deg

Wind Spd Definition
km/h
Visibility Definition
km
Stn Press Definition
kPa
Hmdx Definition


Wind Chill Definition


Weather Definition


00:00 3.7 3.4 98   LegendMM LegendMM LegendMM 99.20     LegendNANA
01:00 3.7 3.4 98   LegendMM LegendMM LegendMM 99.19     LegendNANA
02:00 3.4 3.1 98   LegendMM LegendMM LegendMM 99.16     LegendNANA
03:00 3.5 3.2 98   LegendMM LegendMM LegendMM 99.10     LegendNANA
04:00 3.4 3.1 98   LegendMM LegendMM LegendMM 99.08     LegendNANA
05:00 3.2 2.9 98   LegendMM LegendMM LegendMM 99.09     LegendNANA
06:00 3.1 3.0 99   LegendMM LegendMM LegendMM 99.10     LegendNANA
07:00 3.4 3.3 99   LegendMM LegendMM LegendMM 99.13     LegendNANA
08:00 4.2 4.1 99   LegendMM LegendMM LegendMM 99.16     LegendNANA
09:00 4.9 4.8 99   LegendMM LegendMM LegendMM 99.14     LegendNANA
10:00 6.0 5.6 97   LegendMM LegendMM LegendMM 99.11     LegendNANA
11:00 6.1 5.1 93   LegendMM LegendMM LegendMM 99.09     LegendNANA
12:00 4.9 4.2 95   LegendMM LegendMM LegendMM 99.08     LegendNANA
13:00 5.2 4.8 97   LegendMM LegendMM LegendMM 99.02     LegendNANA
14:00 5.3 4.9 97   LegendMM LegendMM LegendMM 98.97     LegendNANA
15:00 5.3 4.9 97   LegendMM LegendMM LegendMM 98.97     LegendNANA
16:00 5.2 4.8 97   LegendMM LegendMM LegendMM 98.98     LegendNANA
17:00 5.5 5.1 97   LegendMM LegendMM LegendMM 98.99     LegendNANA
18:00 6.0 5.7 98   LegendMM LegendMM LegendMM 99.08     LegendNANA
19:00 6.0 5.7 98   LegendMM LegendMM LegendMM 99.10     LegendNANA
20:00 6.2 5.9 98   LegendMM LegendMM LegendMM 99.14     LegendNANA
21:00 6.4 6.1 98   LegendMM LegendMM LegendMM 99.19     LegendNANA
22:00 6.4 6.1 98   LegendMM LegendMM LegendMM 99.14     LegendNANA
23:00 6.1 5.8 98   LegendMM LegendMM LegendMM 99.22     LegendNANA

Notes on Data Quality.

Legend

  • E = Estimated
  • M = Missing
  • NA = Not Available*
  • [empty] = Indicates an unobserved value
Date modified: